BREEZE-M R/B, 42750

Orbit data source: Space-Track

BREEZE-M R/B, 42750 is space debris in HEO originally from a launch on Thu, 08 Jun 2017 UTC launched from the Tyuratam Missile And Space Complex (TTMTR). Debris objects in space refer to the collection of defunct objects orbiting the Earth. Examples of debris include non-operational satellites, rocket bodies, and fragments generated from explosions, collisions, or faulty payload assembly.

Loading next visibility...
Identifier
42750, 2017-032B
Orbit
HEO
Last TLE update
6 days ago
Origin
Manufacturer
Khrunichev
Mission
Spacecraft
Bus & Motor
BRIZ, Unknown motor
Mass
~1,600 kg wet, 1,600 kg dry
Launch date (UTC)
2017-06-08 (8 years ago)
Launch vehicle
Unknown
Launch site
Tyuratam Missile And Space Complex (TTMTR)
Object type
Payload
Rocket body
Debris
Shape & HBR
Cyl, 4 m
Radar Cross Section
14.451 m², Large (>1 m²)

Expand to show TLE details & history

TLE from 6 days ago
0 BREEZE-M R/B
1 42750U 17032B   25186.57646360 -.00000032  00000-0  00000+0 0  9995
2 42750  30.9150 293.8861 6651878  87.1472 341.3624  2.26361759 66809
Epoch: 2025-07-05T13:50Z
TLE epoch observation values (Epoch: 2025-07-05T13:50:06.455Z)
Latitude
0.00011°
Longitude
162.54684°
Altitude
6,866.434 km
Speed
6.627 km/s
True Right ascension
19h 35m 32s
True Declination
0° 00' 00"
Sunlit
Object was in full shadow at epoch
Visualization orbit readout
Latitude
-22.91506°
Longitude
116.33414°
Altitude
20,900.434 km
Speed
3.6 km/s
Apparent Right ascension
16h 02m 10s
Apparent Declination
-34° 45' 00"
Sunlit
Object is in daylight
Visualization observer readout
Local Sidereal Time
18:40:19
Azimuth
211.792° SW
Elevation
6.909°
Doppler factor
1
Orbital elements
Apogee altitude
34,426.5 km
Perigee altitude
1,826.277 km
Semi-major axis
24,504.526 km
Eccentricity
0.66519
Inclination
30.915°
RAAN
293.8861°
Arg. of periapsis
87.1472°
True anomaly
Unknown
Mean anomaly
341.3624°
Eccentric anomaly
Unknown
Mean motion
0.56581 °/min
Orbital period
636.25 mins
BSTAR
0
Loading maneuver chart data...
Loading SW <> Apogee altitude chart data...
Loading historical data...
Loading historical data...
Loading historical data...
Loading historical data...
Loading historical data...
Loading historical data...
Loading historical data...
Other satellites on launch #32 in the year 2017 (2017-06-08 UTC)

BREEZE-M R/B Visibility forecast

Observer location: undefined°, undefined°

Span
Click to sort rows by Start time (UTC) header in descending order
Start Az.
Max El. time (UTC)
Max El. Az.
Max El.
End time (UTC)
End Az.
71 mins2025-07-11 06:52:06.465Z209.956° SW2025-07-11 07:51:06.465Z161.775° S26.171°2025-07-11 08:03:06.465Z105.671° ESE
110 mins2025-07-11 19:04:06.465Z246.052° WSW2025-07-11 19:18:06.465Z198.387° SSW23.909°2025-07-11 20:54:06.465Z157.812° S
203 mins2025-07-12 01:31:06.465Z171.383° S2025-07-12 04:26:06.465Z156.515° SSE15.212°2025-07-12 04:54:06.465Z127.279° SE
|